Terminal Aerodrome Forecast
Issued by NWS

Home | Current Version | Previous Version | Text Only | Print | Product List | Glossary On
Versions: 1 2 3 4 5 6 7 8 9 10 11 12 13 14 15 16 17 18 19
388
FTUS46 KHNX 082325
TAFVIS
TAF
KVIS 082325Z 0900/0924 VRB03KT P6SM SKC
     FM090500 00000KT 4SM BR SKC
     FM090800 00000KT 2SM BR SKC
     FM091000 00000KT 1/2SM FG VV002
     FM091600 VRB03KT 2SM BR SKC
     FM091800 VRB03KT 3SM BR SKC
     FM092000 VRB03KT P6SM SKC=

USA.gov is the U.S. government's official web portal to all federal, state and local government web resources and services.